Hauptseite
METAR-TAF:

METAR-TAF

Flughäfen :

Militärflugplatz Dübendorf

Dübendorf, Schweiz

Breite: 47-23-55N, Länge: 8-38-53E, Höhe: 448 m

Beobachtung

Neuester Wetterbericht von vor 28 Minuten, um 05:20 UTC
Windstille
Temperatur 13°C
Luftfeuchtigkeit 88%
Luftdruck 1027 hPa
Sichtweite 10 km oder mehr
Aufgelockert bewölkt in der Höhe von 800 ft
Geschlossene Wolkendecke in der Höhe von 1200 ft

METAR: LSMD 070520Z 00000KT 9999 SCT008 OVC012 13/11 Q1027 RMK GRN

Zeit: 07:48 (05:48 UTC)


TAF: fehlend

Wetterbeobachtungen und Prognosen von mehr als 4000 Flughäfen (METAR und TAF Bericht).

Die verfügbaren Stationen werden durch gelbe und rote Markierungen auf der Karte dargestellt.

Führen Sie die Maus auf sie, um den Namen der Station zu sehen.

Darauf klicken, um die Beobachtung von Wetterbeobachtungen und Prognosen zu sehen.

Um die Karte zu ändern : klicken Sie auf den grünen Tasten mit einem schwarzen Kreuz Zum Vergrößern, auf den grünen Button mit einem Gedankenstrich zu verkleinern, oder auf die grünen Pfeile für benachbarte Karten.


METAR-TAF: